Location: Albuquerque Trailhead
(34.7934°N, 106.3736°W)
Time: 01:17:29
(UTC+00:00)

Okean 2 Rocket - Pass Details

Date: 20 June 2021
Orbit: 617 x 640 km, 82.5° (Epoch: 27 July)

Event Time Altitude Azimuth Distance (km) Brightness Sun altitude
Rises 02:47:24 0° 353° (N) 2,941 7.2 -5.3°
Reaches altitude 10° 02:49:39 10° 353° (N) 2,031 6.3 -5.7°
Maximum altitude 02:54:10 88° 270° (W) 645 3.2 -6.5°
Drops below altitude 10° 02:58:40 10° 175° (S) 2,023 5.3 -7.2°
Sets 03:00:54 0° 175° (S) 2,928 6.1 -7.6°
